Location: Palmerston North
(40.3500°S, 175.6170°E)
Time: 19:09:11
(UTC+13:00)

Cosmos 2278 Rocket - Pass Details

Date: 24 January 2019
Orbit: 839 x 847 km, 71.0° (Epoch: 20 February)

Event Time Altitude Azimuth Distance (km) Brightness Sun altitude
Rises 23:29:22 0° 195° (SSW) 3,430 6.6 -24.2°
Reaches altitude 10° 23:32:11 10° 183° (S) 2,489 5.5 -24.5°
Maximum altitude 23:37:05 29° 124° (SE) 1,527 3.5 -24.9°
Enters shadow 23:38:18 26° 102° (ESE) 1,602 3.5 -25.0°
